                ,  1.160,  1.308,  1.456,  1.604,  1.751,  1.899,  2.047,  2.194,  2.342,  2.490,  2.638,  2.785,  2.933,  3.081,  3.229,  3.376,  3.524,  3.672,  3.819,  3.967,  4.115,  4.263,  4.410,  4.558,  4.706,  4.853,  5.001,  5.149,  5.297,  5.444
2007/08/24 00:00,    0.1,   -1.4,   -2.4,   -1.4,   -2.0,   -1.9,   -0.9,   -1.2,   -0.9,   -0.7,   -0.4,    0.9,    1.4,    2.2,    3.1,    1.9,    1.0,    1.2,    1.2,    0.1,   -0.9,  999.0,  999.0,  999.0,    0.1,   -0.8,   -0.8,   -0.7,   -1.0,   -1.3
2007/08/24 00:10,    0.1,   -1.2,   -1.9,   -1.6,   -1.5,   -1.8,   -1.4,   -1.4,   -0.4,   -0.6,   -1.0,    0.1,    0.6,    2.1,    1.7,    1.0,    1.6,    1.6,    0.8,   -0.0,   -0.1,  999.0,  999.0,    0.7,    0.6,   -0.0,   -0.5,   -0.1,   -0.5,   -1.0
2007/08/24 00:20,    0.3,   -1.6,   -1.9,   -1.5,   -1.5,   -1.8,   -1.4,   -1.3,   -1.0,   -0.7,   -0.7,    0.4,    1.5,    1.9,    1.4,    1.4,    1.5,    1.4,    1.4,    0.5,    0.6,  999.0,    0.7,    0.3,    0.9,    0.8,    0.8,    0.5,    0.6,    0.6
2007/08/24 00:30,    0.4,   -1.6,   -1.4,   -1.3,   -0.9,   -1.1,   -0.5,   -1.4,   -1.0,   -0.6,    0.5,    1.8,    2.2,    2.2,    1.8,    1.6,    1.4,    1.6,    1.1,    0.3,    0.4,  999.0,  999.0,    1.2,    1.7,    2.0,    1.3,    0.8,    0.4,    1.6
2007/08/24 00:40,    0.4,   -1.0,   -1.8,   -1.4,   -0.9,   -0.7,   -0.9,   -1.6,   -1.0,   -0.8,    0.4,    1.8,    2.6,    1.8,    1.6,    1.5,    1.1,    1.2,    0.6,    0.2,    0.9,  999.0,  999.0,   -0.2,   -0.1,    0.2,   -1.0,   -1.4,   -1.6,    0.0
2007/08/24 00:50,    0.3,   -1.1,   -2.3,   -1.6,   -1.0,   -0.5,   -0.9,   -1.5,   -1.3,   -1.0,   -0.0,    1.0,    1.8,    1.1,    1.0,    1.6,    0.9,    0.2,   -0.9,   -1.0,    0.8,  999.0,    0.9,    0.1,    0.4,   -0.3,   -1.1,   -1.4,   -1.9,   -0.6
2007/08/24 01:00,    1.0,   -0.4,   -1.3,   -0.9,   -0.5,   -0.5,   -0.6,   -1.0,   -0.7,   -0.7,   -0.4,   -0.2,    1.1,    0.5,    0.3,    1.1,    0.7,    0.6,    0.2,    0.6,    1.1,  999.0,    1.3,    0.2,   -0.2,   -1.3,   -1.7,   -2.1,   -2.1,   -2.0
2007/08/24 01:10,    0.8,   -0.9,   -1.5,   -2.0,   -1.3,   -0.3,   -1.0,   -1.8,   -0.9,   -1.2,   -1.2,   -0.4,    1.4,    1.3,    1.7,    1.4,    0.3,    0.7,    0.7,    0.4,    2.7,  999.0,   -0.0,   -0.7,   -1.1,   -1.9,   -2.1,   -1.6,   -1.1,   -1.1
2007/08/24 01:20,    0.8,   -1.2,   -2.0,   -2.0,   -1.3,   -0.1,   -0.8,   -0.9,   -0.9,    0.1,    1.1,    2.3,    2.5,    2.0,    2.0,    1.9,    1.1,    0.9,    0.6,    0.4,    0.7,  999.0,  999.0,   -0.8,   -1.4,   -1.3,   -0.2,    1.2,    1.4,    1.0
2007/08/24 01:30,  999.0,   -1.1,  999.0,   -2.1,   -0.7,   -0.5,   -2.4,   -0.6,   -0.2,   -0.4,    1.0,    1.5,    1.7,    1.8,    0.8,   -0.2,   -1.3,   -0.9,   -0.7,   -1.1,    0.9,  999.0,  999.0,   -0.8,   -1.0,   -0.6,    1.2,    1.7,    1.9,    2.3
2007/08/24 01:40,   -1.1,   -0.9,   -1.7,   -2.3,   -1.7,   -0.6,   -1.2,   -0.8,   -0.2,    0.5,    1.8,    2.0,    2.4,    1.4,    0.5,    0.2,   -0.3,   -0.3,   -0.4,   -1.0,   -0.9,  999.0,  999.0,   -0.6,   -0.5,    0.5,    1.1,    1.8,    2.8,    3.2
2007/08/24 01:50,    0.8,   -1.5,   -1.6,   -1.4,   -1.1,   -0.8,   -0.7,   -0.2,    0.5,    0.8,    2.2,    2.8,    2.1,    1.7,    1.1,    0.8,    0.4,   -0.2,    0.0,   -0.3,   -0.4,  999.0,  999.0,   -0.7,   -0.1,    1.1,    1.6,    2.4,    4.0,    4.0
2007/08/24 02:00,   -0.5,   -1.2,   -1.4,   -1.3,   -0.7,   -0.1,   -0.3,    0.3,    1.4,    1.6,    2.8,    2.1,    1.2,    0.6,    0.3,   -0.7,   -1.0,   -0.9,   -0.8,   -0.3,   -1.8,  999.0,  999.0,   -0.7,    1.9,    2.2,    2.7,    4.8,    5.1,    4.3
2007/08/24 02:10,   -0.3,   -1.3,   -1.8,   -1.9,   -0.8,   -1.0,   -0.3,   -0.2,    0.6,    0.9,    1.5,    0.5,    0.7,    0.5,   -0.0,   -1.0,   -1.5,   -1.7,   -1.4,   -2.4,   -2.9,   -3.6,  999.0,   -0.3,    1.5,    1.5,    2.4,    3.3,    4.1,    3.0
2007/08/24 02:20,    1.6,   -1.8,   -2.2,   -1.1,   -1.4,   -2.4,    0.2,    1.1,    0.6,    0.6,    1.9,    1.8,    2.8,    1.5,    2.5,    0.1,   -0.2,   -0.2,   -0.7,   -1.8,   -3.1,  999.0,  999.0,    1.7,    2.1,  999.0,    2.6,    3.8,  999.0,    3.4
2007/08/24 02:30,   -0.9,   -1.9,   -3.0,   -2.3,   -1.4,   -0.7,   -0.1,    0.9,    0.8,    3.1,    1.7,    0.7,    0.8,    0.8,    1.4,   -1.3,   -1.4,   -1.7,   -2.2,   -3.7,   -3.3,   -4.4,  999.0,    1.4,    2.4,    2.4,    2.8,    3.0,    3.1,    3.9
2007/08/24 02:40,   -0.9,   -1.8,   -2.3,   -1.3,   -1.1,   -0.7,    1.0,    0.6,    0.8,    0.7,    0.5,    1.1,    0.5,   -0.4,   -0.5,   -0.8,   -1.1,   -1.8,   -3.2,   -3.5,   -4.1,    1.0,  999.0,    3.8,    2.6,    2.2,    3.1,    3.5,    2.6,    2.6
2007/08/24 02:50,   -0.8,   -1.2,   -1.7,   -1.5,   -1.2,   -0.6,   -0.1,    0.1,    0.8,    1.2,    1.2,    1.1,    0.1,   -0.1,   -0.9,   -1.1,   -2.1,   -2.9,   -3.7,   -3.2,    0.1,  999.0,  999.0,    3.1,    3.4,    3.3,    3.2,    3.3,    2.6,    2.5
2007/08/24 03:00,    0.3,   -0.8,   -1.6,   -1.6,   -1.1,   -0.4,    0.1,    0.0,   -0.3,   -0.6,    0.3,   -0.6,   -1.3,   -1.2,   -1.8,   -3.5,   -3.7,   -4.4,   -3.8,   -2.6,    0.0,  999.0,  999.0,    2.7,    2.8,    2.5,    2.8,    2.4,    2.4,    2.6
2007/08/24 03:10,   -1.2,   -1.9,   -1.6,   -2.2,   -1.3,   -1.2,   -0.7,   -0.7,    0.8,   -0.3,   -0.7,   -1.5,   -1.0,   -1.1,   -1.7,   -2.7,   -3.1,   -2.1,   -0.6,    0.0,    1.8,    2.5,    3.1,    2.4,    2.8,    3.1,    3.2,    2.9,    2.3,    2.3
2007/08/24 03:20,    6.0,  999.0,   -1.3,    0.0,   -0.6,   -0.4,   -0.5,    0.5,    0.8,   -0.0,   -0.3,   -0.8,   -1.6,   -3.1,   -3.8,   -4.0,   -3.2,   -1.9,    0.1,    1.4,    1.7,    2.6,    3.5,    3.7,    3.7,    3.9,    2.9,    2.3,    2.2,    2.1
2007/08/24 03:30,  999.0,  999.0,   -1.6,   -1.5,   -1.1,   -1.4,   -1.1,   -0.6,   -1.0,   -0.8,   -1.1,   -2.0,   -2.6,   -3.0,   -3.1,   -2.2,   -1.7,    0.0,    1.2,    1.9,    2.4,    2.7,    2.7,    3.1,    3.4,    3.2,    1.8,    1.1,    1.2,    1.2
2007/08/24 03:40,  999.0,   -0.4,  999.0,    1.7,    1.2,   -1.2,   -0.4,   -0.7,   -0.5,   -0.2,   -0.3,   -1.0,   -2.6,   -3.5,   -2.8,   -2.2,   -1.3,    0.5,    0.4,    0.1,    0.5,    2.4,    3.6,    4.2,    4.5,    3.0,    1.2,    0.9,    1.0,    1.3
2007/08/24 03:50,  999.0,   -0.7,    0.7,   -3.1,    0.6,   -0.1,    3.0,    0.8,    0.8,    0.9,    1.3,   -0.4,   -1.2,    0.1,   -1.1,   -0.2,    0.6,    1.2,    0.7,   -0.2,    2.1,    3.5,    4.1,    4.8,    4.4,    2.5,    0.8,    0.4,    0.7,    0.6
2007/08/24 04:00,  999.0,  999.0,  999.0,  999.0,    0.8,    1.3,    1.1,    1.2,   -0.6,    0.6,   -0.1,   -2.3,   -2.4,   -1.8,   -1.2,    0.1,   -0.3,   -0.8,    0.2,    1.4,    2.4,    4.0,    4.4,    4.4,    4.6,    3.2,    2.0,   -0.1,    0.4,    1.0
2007/08/24 04:10,  999.0,  999.0,  999.0,    0.3,    0.1,    0.1,    2.6,    3.0,    2.8,    3.1,    2.2,    0.6,    0.5,    0.4,   -0.5,   -0.5,   -0.6,   -0.9,    0.2,    0.6,    2.5,    3.8,    4.0,    4.1,    3.9,    3.5,    1.7,    1.4,    0.3,    1.0
2007/08/24 04:20,  999.0,    0.1,  999.0,  999.0,  999.0,  999.0,    0.2,  999.0,  999.0,  999.0,  999.0,  999.0,  999.0,  999.0,  999.0,  999.0,   -1.6,    0.8,    1.3,    2.1,    4.0,    4.0,    4.0,    4.8,    4.6,    3.9,    2.0,    1.5,    1.5,    0.5
2007/08/24 04:30,  999.0,    0.3,  999.0,  999.0,  999.0,  999.0,  999.0,  999.0,    1.0,  999.0,    0.1,   -0.7,    0.1,    0.8,    0.4,    0.6,    2.1,    1.7,  999.0,    6.2,    5.9,    4.9,    2.7,    4.2,    4.1,    3.2,    3.1,    2.2,    1.0,    0.4
2007/08/24 04:40,  999.0,  999.0,    3.5,    2.2,    0.6,    1.4,    0.9,    1.0,    2.7,   -1.7,   -0.2,   -1.6,   -1.5,   -0.4,   -1.3,   -0.8,    0.0,   -1.1,    1.1,    2.0,    3.0,    4.5,    4.6,    4.4,    4.2,    3.7,    3.3,    3.0,    2.7,    2.2
2007/08/24 04:50,  999.0,    0.3,   -0.8,  999.0,  999.0,  999.0,   -1.5,   -1.3,  999.0,   -4.1,   -0.7,    0.3,   -0.2,   -1.9,   -3.1,   -0.9,   -0.0,   -0.4,   -0.0,    0.6,    1.2,    3.9,    4.4,    3.6,    3.7,    4.7,    5.7,  999.0,    2.5,  999.0
2007/08/24 05:00,  999.0,   -0.3,   -1.3,  999.0,    6.1,  999.0,  999.0,   -3.0,  999.0,   -1.2,   -1.3,   -0.3,   -0.1,   -2.2,   -2.0,   -1.2,   -0.5,    1.1,    1.8,    2.2,    2.4,    4.0,  999.0,    2.5,    2.9,    3.4,    3.4,    2.3,    1.7,  999.0
2007/08/24 05:10,  999.0,   -0.2,  999.0,  999.0,  999.0,   -0.0,    2.8,   -0.6,    1.0,   -0.9,   -3.4,   -1.0,   -1.5,   -2.1,   -2.2,   -1.3,    0.1,    1.9,    1.6,    1.9,    2.5,    4.0,  999.0,    3.1,    3.1,    3.2,    2.9,    3.0,    2.9,    2.1
2007/08/24 05:20,    0.0,   -1.1,    0.5,    1.1,    2.6,    2.6,    2.1,    2.3,    4.6,    3.9,    3.9,    2.4,    0.5,   -0.2,   -0.2,    0.4,    0.4,    3.3,    6.0,    5.8,    2.7,  999.0,    2.5,    1.5,    0.7,   -0.2,   -0.1,   -0.3,   -0.2,   -0.5
2007/08/24 05:30,   -0.2,   -0.7,    0.2,    0.7,    1.2,    2.5,    1.6,    1.0,    1.1,    0.5,    1.4,    2.0,    1.4,    0.8,    1.4,    2.4,    1.4,    3.1,    5.4,    2.3,   -0.2,  999.0,  999.0,  999.0,   -3.9,   -3.5,   -3.4,   -3.2,   -2.6,   -1.8
2007/08/24 05:40,   -0.0,   -1.2,    0.5,    0.9,    1.7,    1.5,    2.0,    2.2,    2.5,    1.3,    1.7,    1.5,    1.4,    2.3,    3.8,    2.7,    2.1,    0.9,    2.8,   -0.2,   -3.0,   -2.9,   -2.2,   -2.6,   -3.4,   -4.6,   -4.0,   -3.7,   -4.1,   -5.0
2007/08/24 05:50,    0.1,   -1.2,   -4.8,    0.3,    2.6,    2.0,    2.7,    0.4,    0.2,   -0.8,    0.6,   -1.4,   -1.3,   -0.0,    0.4,   -0.0,    2.1,    2.9,   -0.2,   -2.6,   -4.2,   -5.2,  999.0,   -4.8,   -5.7,   -5.5,   -5.4,   -5.2,   -5.4,   -6.8
2007/08/24 06:00,   -1.1,    1.5,   -1.1,   -0.6,    0.8,    1.4,    1.5,    3.4,    0.3,    0.2,    1.2,    1.1,    2.2,    3.3,    6.8,    8.1,    6.3,    6.9,    6.8,    3.7,  999.0,  999.0,  999.0,  999.0,  999.0,  999.0,   -2.1,   -2.0,   -2.8,   -3.4
2007/08/24 06:10,  999.0,  999.0,  999.0,  999.0,  999.0,  999.0,    3.0,    0.2,  999.0,  999.0,  999.0,  999.0,  999.0,  999.0,  999.0,  999.0,  999.0,  999.0,  999.0,  999.0,  999.0,  999.0,  999.0,  999.0,  999.0,  999.0,  999.0,  999.0,  999.0,  999.0
2007/08/24 06:20,  999.0,  999.0,   -0.7,  999.0,  999.0,  999.0,   -0.1,  999.0,  999.0,  999.0,  999.0,  999.0,  999.0,  999.0,  999.0,  999.0,  999.0,  999.0,  999.0,  999.0,  999.0,  999.0,  999.0,  999.0,  999.0,  999.0,  999.0,  999.0,  999.0,  999.0
2007/08/24 06:30,  999.0,   -0.3,   -1.0,  999.0,  999.0,  999.0,    0.3,    1.2,  999.0,  999.0,    2.5,  999.0,  999.0,  999.0,  999.0,  999.0,  999.0,  999.0,  999.0,    5.0,  999.0,  999.0,  999.0,  999.0,  999.0,  999.0,  999.0,  999.0,  999.0,  999.0
2007/08/24 06:40,  999.0,   -0.6,   -0.6,  999.0,  999.0,  999.0,    2.1,  999.0,  999.0,  999.0,  999.0,  999.0,    1.6,  999.0,  999.0,  999.0,  999.0,  999.0,  999.0,  999.0,  999.0,  999.0,  999.0,  999.0,  999.0,  999.0,  999.0,  999.0,  999.0,  999.0
2007/08/24 06:50,  999.0,   -0.4,   -0.4,   -1.0,  999.0,  999.0,  999.0,  999.0,  999.0,  999.0,  999.0,  999.0,  999.0,  999.0,  999.0,  999.0,  999.0,  999.0,  999.0,  999.0,  999.0,  999.0,  999.0,  999.0,  999.0,  999.0,  999.0,  999.0,  999.0,  999.0
2007/08/24 07:00,   -0.4,   -0.6,   -1.0,  999.0,  999.0,  999.0,    1.0,    1.4,  999.0,  999.0,  999.0,    1.6,    2.1,  999.0,  999.0,  999.0,  999.0,  999.0,  999.0,  999.0,  999.0,  999.0,  999.0,  999.0,  999.0,  999.0,  999.0,  999.0,  999.0,  999.0
2007/08/24 07:10,  999.0,   -0.0,    0.7,  999.0,  999.0,  999.0,    0.8,  999.0,  999.0,  999.0,  999.0,  999.0,  999.0,  999.0,  999.0,  999.0,  999.0,  999.0,  999.0,  999.0,  999.0,  999.0,  999.0,  999.0,  999.0,  999.0,  999.0,  999.0,  999.0,  999.0
2007/08/24 07:20,   -0.3,   -0.4,   -1.0,  999.0,  999.0,  999.0,    0.5,   -0.3,  999.0,  999.0,  999.0,  999.0,  999.0,  999.0,  999.0,  999.0,  999.0,  999.0,  999.0,  999.0,  999.0,  999.0,  999.0,  999.0,  999.0,  999.0,  999.0,  999.0,  999.0,  999.0
2007/08/24 07:30,   -0.3,   -0.2,   -0.4,  999.0,  999.0,  999.0,  999.0,   -0.8,  999.0,  999.0,  999.0,  999.0,  999.0,  999.0,  999.0,  999.0,  999.0,  999.0,  999.0,  999.0,  999.0,  999.0,  999.0,  999.0,  999.0,  999.0,  999.0,  999.0,  999.0,  999.0
2007/08/24 07:40,   -0.3,   -0.3,    2.5,  999.0,  999.0,  999.0,    0.1,  999.0,  999.0,  999.0,  999.0,  999.0,  999.0,  999.0,  999.0,  999.0,  999.0,  999.0,  999.0,  999.0,  999.0,  999.0,  999.0,  999.0,  999.0,  999.0,  999.0,  999.0,  999.0,  999.0
2007/08/24 07:50,   -0.3,   -0.2,    0.1,  999.0,  999.0,  999.0,  999.0,  999.0,  999.0,  999.0,  999.0,  999.0,  999.0,  999.0,  999.0,  999.0,  999.0,  999.0,  999.0,  999.0,  999.0,  999.0,  999.0,  999.0,  999.0,  999.0,  999.0,  999.0,  999.0,  999.0
2007/08/24 08:00,   -0.2,   -0.2,    0.1,  999.0,  999.0,  999.0,   -1.1,   -0.5,  999.0,  999.0,  999.0,  999.0,  999.0,  999.0,  999.0,  999.0,  999.0,  999.0,  999.0,  999.0,  999.0,  999.0,  999.0,  999.0,  999.0,  999.0,  999.0,  999.0,  999.0,  999.0
2007/08/24 08:10,   -0.3,   -0.2,    0.0,  999.0,  999.0,  999.0,    1.0,   -0.3,  999.0,  999.0,  999.0,  999.0,  999.0,  999.0,  999.0,  999.0,  999.0,  999.0,  999.0,  999.0,  999.0,  999.0,  999.0,  999.0,  999.0,  999.0,  999.0,  999.0,  999.0,  999.0
2007/08/24 08:20,   -0.2,   -0.2,   -0.7,  999.0,    3.3,  999.0,    0.1,    0.3,  999.0,  999.0,  999.0,  999.0,  999.0,  999.0,  999.0,  999.0,  999.0,  999.0,  999.0,  999.0,  999.0,  999.0,  999.0,  999.0,  999.0,  999.0,  999.0,  999.0,  999.0,  999.0
2007/08/24 08:30,  999.0,   -0.2,   -0.3,  999.0,   -0.1,  999.0,  999.0,   -0.4,    0.2,  999.0,  999.0,  999.0,  999.0,  999.0,  999.0,  999.0,  999.0,  999.0,  999.0,  999.0,  999.0,  999.0,  999.0,  999.0,  999.0,  999.0,  999.0,  999.0,  999.0,  999.0
2007/08/24 08:40,   -0.2,   -0.1,    0.3,    0.5,  999.0,  999.0,    1.1,   -0.5,  999.0,  999.0,  999.0,  999.0,  999.0,  999.0,  999.0,  999.0,  999.0,  999.0,  999.0,  999.0,  999.0,  999.0,  999.0,  999.0,  999.0,  999.0,  999.0,  999.0,  999.0,  999.0
2007/08/24 08:50,   -0.3,   -0.2,    0.1,  999.0,  999.0,  999.0,   -2.2,  999.0,  999.0,  999.0,  999.0,  999.0,  999.0,  999.0,  999.0,  999.0,  999.0,  999.0,  999.0,  999.0,  999.0,  999.0,  999.0,  999.0,  999.0,  999.0,  999.0,  999.0,  999.0,  999.0
2007/08/24 09:00,   -0.3,   -0.1,    0.0,  999.0,  999.0,  999.0,    0.3,    0.4,  999.0,  999.0,  999.0,  999.0,  999.0,  999.0,  999.0,  999.0,  999.0,  999.0,  999.0,  999.0,  999.0,  999.0,  999.0,  999.0,  999.0,  999.0,  999.0,  999.0,  999.0,  999.0
2007/08/24 09:10,  999.0,   -0.3,    3.2,  999.0,    3.7,  999.0,  999.0,  999.0,  999.0,  999.0,  999.0,    0.9,  999.0,  999.0,  999.0,  999.0,  999.0,  999.0,  999.0,  999.0,  999.0,  999.0,  999.0,  999.0,  999.0,  999.0,  999.0,  999.0,  999.0,  999.0
2007/08/24 09:20,   -0.2,   -0.3,    0.4,  999.0,  999.0,    1.0,  999.0,  999.0,  999.0,  999.0,  999.0,  999.0,  999.0,  999.0,  999.0,  999.0,  999.0,  999.0,  999.0,  999.0,  999.0,  999.0,  999.0,  999.0,  999.0,  999.0,  999.0,  999.0,  999.0,  999.0
2007/08/24 09:30,   -0.1,   -0.2,    1.0,  999.0,  999.0,  999.0,  999.0,  999.0,  999.0,  999.0,  999.0,  999.0,  999.0,  999.0,  999.0,  999.0,  999.0,  999.0,  999.0,  999.0,  999.0,  999.0,  999.0,  999.0,  999.0,  999.0,  999.0,  999.0,  999.0,  999.0
2007/08/24 09:40,  999.0,    0.5,   -1.9,    1.8,    3.1,  999.0,  999.0,   -9.0,  999.0,  999.0,  999.0,  999.0,  999.0,  999.0,  999.0,  999.0,  999.0,  999.0,  999.0,  999.0,  999.0,  999.0,  999.0,  999.0,  999.0,  999.0,  999.0,  999.0,  999.0,  999.0
2007/08/24 09:50,    0.0,    0.2,   -0.3,    1.3,  999.0,    4.7,    1.7,    0.5,    1.7,  999.0,  999.0,  999.0,  999.0,  999.0,  999.0,  999.0,  999.0,  999.0,  999.0,  999.0,  999.0,  999.0,  999.0,  999.0,  999.0,  999.0,  999.0,  999.0,  999.0,  999.0
2007/08/24 10:00,   -0.2,    1.2,    0.9,    0.9,    2.9,  999.0,    4.2,    2.1,    2.2,  999.0,  999.0,  999.0,  999.0,  999.0,  999.0,  999.0,  999.0,  999.0,  999.0,  999.0,  999.0,  999.0,  999.0,  999.0,  999.0,  999.0,  999.0,  999.0,  999.0,  999.0
2007/08/24 10:10,    0.0,    1.3,    1.8,    2.9,    2.0,  999.0,    3.9,    1.0,  999.0,  999.0,  999.0,  999.0,  999.0,  999.0,  999.0,  999.0,  999.0,  999.0,  999.0,  999.0,  999.0,  999.0,  999.0,  999.0,  999.0,  999.0,  999.0,  999.0,  999.0,  999.0
2007/08/24 10:20,  999.0,  999.0,    2.4,    1.9,    0.1,   -4.4,    0.4,    0.9,  999.0,  999.0,  999.0,  999.0,  999.0,  999.0,  999.0,  999.0,  999.0,  999.0,  999.0,  999.0,  999.0,  999.0,  999.0,  999.0,  999.0,  999.0,  999.0,  999.0,  999.0,  999.0
2007/08/24 10:30,  999.0,    0.9,    1.6,    2.6,    2.5,    3.2,    0.4,    0.4,  999.0,  999.0,  999.0,  999.0,  999.0,  999.0,  999.0,  999.0,  999.0,  999.0,  999.0,  999.0,  999.0,  999.0,  999.0,  999.0,  999.0,  999.0,  999.0,  999.0,  999.0,  999.0
2007/08/24 10:40,  999.0,    2.6,  999.0,    0.8,    5.1,  999.0,  999.0,    1.6,  999.0,    0.5,  999.0,  999.0,  999.0,  999.0,  999.0,  999.0,  999.0,  999.0,  999.0,  999.0,  999.0,  999.0,  999.0,  999.0,  999.0,  999.0,  999.0,  999.0,  999.0,  999.0
2007/08/24 10:50,    0.6,  999.0,    1.1,    1.5,    2.6,  999.0,   -0.1,    1.8,  999.0,  999.0,  999.0,  999.0,  999.0,    0.7,  999.0,  999.0,  999.0,  999.0,  999.0,  999.0,  999.0,  999.0,  999.0,  999.0,  999.0,  999.0,  999.0,  999.0,  999.0,  999.0
2007/08/24 11:00,  999.0,    2.7,    3.8,    3.1,    1.7,    2.3,  999.0,    4.3,  999.0,    2.6,  999.0,  999.0,  999.0,  999.0,    2.2,  999.0,  999.0,  999.0,  999.0,  999.0,  999.0,  999.0,  999.0,  999.0,  999.0,  999.0,  999.0,  999.0,  999.0,  999.0
2007/08/24 11:10,    0.2,   -0.6,    0.2,   -0.6,    0.4,    1.1,  999.0,    1.3,  999.0,  999.0,  999.0,  999.0,  999.0,  999.0,  999.0,  999.0,  999.0,  999.0,  999.0,  999.0,  999.0,  999.0,  999.0,  999.0,  999.0,  999.0,  999.0,  999.0,  999.0,  999.0
2007/08/24 11:20,   -1.8,   -2.5,   -2.3,   -1.5,   -3.0,   -1.4,  999.0,  999.0,  999.0,  999.0,   -2.8,    1.6,    0.4,    0.0,  999.0,  999.0,  999.0,  999.0,  999.0,  999.0,  999.0,  999.0,  999.0,  999.0,  999.0,  999.0,  999.0,  999.0,  999.0,  999.0
2007/08/24 11:30,   -0.9,    0.3,    1.4,   -0.0,   -1.7,   -0.8,    1.0,    1.0,  999.0,  999.0,    4.1,  999.0,    3.0,    2.0,  999.0,  999.0,  999.0,  999.0,  999.0,  999.0,  999.0,  999.0,  999.0,  999.0,  999.0,  999.0,  999.0,  999.0,  999.0,  999.0
2007/08/24 11:40,   -0.2,    0.7,   -0.8,   -1.7,   -2.2,   -0.4,    0.4,  999.0,    3.5,  999.0,  999.0,    1.6,  999.0,  999.0,  999.0,  999.0,  999.0,  999.0,  999.0,  999.0,  999.0,  999.0,  999.0,  999.0,  999.0,  999.0,  999.0,  999.0,  999.0,  999.0
2007/08/24 11:50,   -2.0,   -1.0,   -0.9,    1.3,   -0.6,   -1.4,   -1.0,   -1.6,   -0.0,    1.4,    3.1,  999.0,    2.0,  999.0,  999.0,  999.0,  999.0,  999.0,  999.0,  999.0,  999.0,  999.0,  999.0,  999.0,  999.0,  999.0,  999.0,  999.0,  999.0,  999.0
2007/08/24 12:00,   -0.8,   -0.7,   -2.2,   -1.9,    0.5,    1.4,    1.7,    2.8,    3.0,    1.6,   -0.2,    0.6,    1.4,  999.0,  999.0,  999.0,  999.0,  999.0,  999.0,  999.0,  999.0,  999.0,  999.0,  999.0,  999.0,  999.0,  999.0,  999.0,  999.0,  999.0
2007/08/24 12:10,   -1.5,   -0.1,   -0.1,    1.2,    1.2,   -0.3,    0.9,    1.5,    2.7,    1.1,   -0.8,  999.0,  999.0,  999.0,  999.0,  999.0,  999.0,  999.0,  999.0,  999.0,  999.0,  999.0,  999.0,  999.0,  999.0,  999.0,  999.0,  999.0,  999.0,  999.0
2007/08/24 12:20,    0.9,    1.3,    0.6,   -0.4,    1.0,    1.9,    1.0,    0.4,    1.9,    1.2,   -0.9,    0.2,    1.1,  999.0,  999.0,  999.0,  999.0,  999.0,  999.0,  999.0,  999.0,  999.0,  999.0,  999.0,  999.0,  999.0,  999.0,  999.0,  999.0,  999.0
2007/08/24 12:30,    0.2,   -0.2,   -0.5,    0.0,    0.5,    1.8,    2.6,    2.1,    1.9,    0.5,    0.8,  999.0,   -0.3,   -0.3,  999.0,  999.0,  999.0,  999.0,  999.0,  999.0,  999.0,  999.0,  999.0,  999.0,  999.0,  999.0,  999.0,  999.0,  999.0,  999.0
2007/08/24 12:40,    0.3,  999.0,    2.9,    3.7,    2.4,    2.0,    0.3,    1.6,    1.5,    1.4,  999.0,  999.0,  999.0,  999.0,  999.0,  999.0,  999.0,  999.0,  999.0,  999.0,  999.0,  999.0,  999.0,  999.0,  999.0,  999.0,  999.0,  999.0,  999.0,  999.0
2007/08/24 12:50,   -1.8,   -0.6,   -0.1,   -0.3,    1.2,    2.4,    3.1,    2.1,    2.8,    2.0,    0.2,  999.0,    1.5,    1.5,  999.0,  999.0,  999.0,  999.0,  999.0,  999.0,  999.0,  999.0,  999.0,  999.0,  999.0,  999.0,  999.0,  999.0,  999.0,  999.0
2007/08/24 13:00,    0.5,    1.0,    2.3,    1.2,    2.6,    1.7,    1.4,    2.8,    3.6,    4.2,    4.2,    6.8,    3.1,    3.4,    4.1,    1.3,    3.9,    6.0,    1.8,  999.0,  999.0,  999.0,  999.0,  999.0,  999.0,  999.0,  999.0,  999.0,  999.0,  999.0
2007/08/24 13:10,    7.7,   13.4,    1.0,    8.9,   12.0,   15.7,   15.8,   14.2,   18.6,   11.8,   11.5,   12.2,    6.3,    2.3,  999.0,   25.2,   16.5,   17.0,   11.4,   -8.7,   -1.3,   -3.2,  999.0,    4.7,    5.3,   10.3,   10.1,    9.3,    8.0,    5.6
2007/08/24 13:20,    3.7,    2.8,    4.1,    3.7,    3.8,    4.0,    4.5,    2.8,    5.7,    4.5,    5.4,    5.8,    2.1,    5.4,    5.7,    0.3,   -0.6,   -1.5,    0.3,    0.9,    0.6,    5.3,   10.4,    6.5,    9.0,    7.6,   10.2,    9.5,    8.5,   10.0
2007/08/24 13:30,    3.1,   -0.0,    5.1,    4.8,    6.9,    0.2,    2.2,   -2.8,   -3.0,   -0.1,   -2.4,   -3.4,   -1.7,   -0.2,    0.5,    2.9,   -1.1,    2.3,    0.8,   -1.2,   -0.3,   -4.2,   -3.1,   -3.2,   -2.6,   -6.9,   -1.2,   -3.9,   -5.2,   -5.6
2007/08/24 13:40,    0.7,    3.1,    2.6,    2.6,    2.9,    2.4,    1.4,    1.2,    1.4,    2.6,    4.8,    1.0,    2.0,    2.6,    3.3,  999.0,    1.7,  -10.2,  -12.0,   -2.4,   -3.7,   -4.6,   -0.9,    1.5,    3.0,    4.1,    3.9,    3.6,    5.1,    4.1
2007/08/24 13:50,    0.1,   -0.2,    0.7,   -0.9,    1.3,    2.3,    2.9,    1.3,    1.9,    0.8,    1.7,    2.0,    1.0,   -4.8,   -2.9,   -8.6,   -8.4,  999.0,  999.0,  999.0,   -2.1,   -1.7,   -3.9,   -4.4,  999.0,   -0.5,   -3.1,   -2.9,   -3.7,   -7.1
2007/08/24 14:00,    1.7,    1.4,    2.3,    4.0,    1.4,    2.5,    5.6,    5.5,    4.8,    2.5,    3.3,    4.1,    4.9,    7.3,    4.9,    2.8,    3.5,  999.0,  999.0,  999.0,  999.0,  999.0,  999.0,  999.0,    3.0,    0.9,    4.3,  999.0,  999.0,   -2.8
2007/08/24 14:10,    2.4,  999.0,   -1.1,   -4.2,  999.0,  999.0,   -0.4,  999.0,    3.9,  999.0,  999.0,  999.0,  999.0,  999.0,    6.6,    3.5,  999.0,  999.0,  999.0,  999.0,    2.1,  999.0,  999.0,  999.0,  999.0,  999.0,  999.0,  999.0,  999.0,  999.0
2007/08/24 14:20,   -0.3,   -0.6,    0.2,    0.1,    1.3,  999.0,    2.2,    3.0,    3.0,  999.0,  999.0,  999.0,    2.2,    3.9,    2.4,  999.0,    2.4,  999.0,  999.0,  999.0,  999.0,  999.0,  999.0,  999.0,  999.0,  999.0,  999.0,  999.0,  999.0,  999.0
2007/08/24 14:30,  999.0,   -0.1,    0.4,    0.8,    1.2,    1.2,    2.1,    0.5,    3.2,  999.0,  999.0,  999.0,    2.9,    3.6,  999.0,  999.0,  999.0,  999.0,    4.0,   -3.8,  999.0,   -2.6,  999.0,  999.0,  999.0,  999.0,  999.0,  999.0,  999.0,  999.0
2007/08/24 14:40,   -0.2,   -0.1,    0.7,    1.3,    0.6,   -0.2,    3.4,    1.9,    2.0,  999.0,  999.0,  999.0,  999.0,  999.0,  999.0,  999.0,  999.0,  999.0,  999.0,  999.0,  999.0,   -0.3,  999.0,  999.0,  999.0,  999.0,  999.0,  999.0,  999.0,  999.0
2007/08/24 14:50,  999.0,  999.0,    1.3,    1.0,    1.4,    2.5,    3.1,    3.3,  999.0,  999.0,  999.0,  999.0,  999.0,  999.0,  999.0,    3.5,    4.9,    4.4,    4.4,    3.1,    4.9,    5.2,    4.2,    1.8,    3.0,    3.7,   -1.9,    1.4,    0.3,   -2.1
2007/08/24 15:00,  999.0,  999.0,  999.0,  999.0,    1.8,    2.2,    2.3,    3.1,   -7.2,  -11.4,  999.0,   -0.4,   -1.7,   -1.2,   -0.8,   -0.5,   -1.6,   -0.2,   -1.8,   -1.7,    0.0,    0.4,    0.7,   -0.3,   -2.1,   -1.7,   -1.8,   -2.4,   -3.2,   -2.8
2007/08/24 15:10,  999.0,   -1.7,    0.5,    1.5,    2.5,    2.7,    1.3,    1.4,   -0.1,   -0.2,   -0.2,    1.1,    1.1,    0.7,    0.6,    0.7,   -0.5,   -1.0,   -1.7,   -3.4,   -2.5,   -2.4,   -1.9,   -1.7,    0.4,    0.9,    2.1,    0.7,    0.0,   -0.3
2007/08/24 15:20,   -3.1,   -1.4,   -0.5,    1.4,    2.0,    2.2,    3.1,    2.3,   -0.1,    0.2,    0.6,    1.2,    0.7,    1.5,    0.4,   -0.7,   -1.7,    0.3,   -1.2,   -2.1,   -3.3,   -2.6,   -1.6,   -1.0,   -0.9,   -2.7,   -2.9,   -3.0,   -1.9,   -2.0
2007/08/24 15:30,  999.0,  -16.5,   -1.2,   -0.3,   -2.2,    2.4,    2.9,    2.3,  -14.7,  -15.7,   -9.7,   -4.7,  999.0,    2.4,    2.6,    3.0,    0.5,   -0.3,    0.0,   -0.2,   -3.2,  999.0,   -3.4,   -1.5,  999.0,    0.2,    0.8,  999.0,   -1.8,   -1.5
2007/08/24 15:40,  999.0,  999.0,   -0.5,  999.0,  999.0,  999.0,    3.8,  999.0,  999.0,  999.0,  999.0,  999.0,  999.0,    0.2,    3.8,    1.9,    2.2,    1.5,    1.1,  999.0,  999.0,  999.0,  999.0,  999.0,  999.0,  999.0,  999.0,  999.0,  999.0,  999.0
2007/08/24 15:50,  999.0,   -0.5,    0.5,    1.4,    2.2,  999.0,    2.4,    4.1,  999.0,  999.0,  999.0,    2.9,    4.0,  999.0,  999.0,  999.0,  999.0,  999.0,   -1.2,  999.0,  999.0,  999.0,  999.0,  999.0,  999.0,  999.0,  999.0,  999.0,  999.0,  999.0
2007/08/24 16:00,  999.0,   -0.1,   -0.3,   -0.5,  999.0,  999.0,    1.7,    2.1,  999.0,    2.2,  999.0,    3.7,  999.0,    2.3,  999.0,  999.0,  999.0,  999.0,  999.0,  999.0,  999.0,  999.0,  999.0,  999.0,  999.0,  999.0,  999.0,  999.0,  999.0,  999.0
2007/08/24 16:10,  999.0,    0.3,   -0.7,  999.0,    2.4,  999.0,    1.9,    1.8,    1.8,    2.3,    2.7,    2.9,    2.7,  999.0,  999.0,  999.0,  999.0,  999.0,  999.0,  999.0,    3.0,  999.0,  999.0,  999.0,  999.0,  999.0,  999.0,  999.0,  999.0,  999.0
2007/08/24 16:20,  999.0,   -0.6,   -0.4,  999.0,    1.7,    1.9,    2.0,    1.8,    1.9,    2.1,    2.0,  999.0,    2.5,  999.0,  999.0,  999.0,  999.0,  999.0,  999.0,  999.0,  999.0,  999.0,  999.0,  999.0,  999.0,  999.0,   -1.0,  999.0,  999.0,  999.0
2007/08/24 16:30,  999.0,  999.0,    0.8,  999.0,  999.0,  999.0,    2.9,    1.8,    2.6,    4.0,    4.0,  999.0,    3.2,  999.0,  999.0,  999.0,  999.0,  999.0,  999.0,  999.0,  999.0,   -0.4,  999.0,  999.0,  999.0,  999.0,  999.0,  999.0,  999.0,  999.0
2007/08/24 16:40,  999.0,   -0.2,   -4.8,    3.3,  999.0,  999.0,    2.5,    3.0,    4.1,    4.5,    4.4,  999.0,  999.0,  999.0,  999.0,  999.0,  999.0,  999.0,  999.0,  999.0,  999.0,  999.0,  999.0,  999.0,  999.0,  999.0,  999.0,  999.0,  999.0,  999.0
2007/08/24 16:50,   -0.1,    0.2,    1.6,    2.2,    2.5,  999.0,    2.1,    3.4,    4.1,    4.8,    4.7,    5.2,  999.0,  999.0,  999.0,  999.0,  999.0,  999.0,  999.0,  999.0,  999.0,  999.0,  999.0,  999.0,  999.0,  999.0,  999.0,  999.0,  999.0,  999.0
2007/08/24 17:00,   -0.1,   -0.3,    1.4,    2.5,    2.1,    1.6,    1.9,    2.5,  999.0,  999.0,  999.0,  999.0,  999.0,  999.0,  999.0,  999.0,  999.0,  999.0,  999.0,  999.0,  999.0,  999.0,  999.0,  999.0,  999.0,  999.0,  999.0,  999.0,  999.0,  999.0
2007/08/24 17:10,   -0.1,    0.6,    2.2,    1.9,    2.7,    1.6,    2.7,    1.6,    5.2,    4.8,    5.1,  999.0,  999.0,  999.0,  999.0,  999.0,  999.0,  999.0,  999.0,  999.0,  999.0,  999.0,  999.0,  999.0,  999.0,  999.0,  999.0,  999.0,  999.0,  999.0
2007/08/24 17:20,  999.0,   -0.3,    1.3,    2.1,    2.0,    1.8,    2.3,    3.5,    3.2,    4.2,    2.7,    3.0,  999.0,  999.0,  999.0,  999.0,  999.0,  999.0,  999.0,  999.0,  999.0,  999.0,  999.0,  999.0,  999.0,  999.0,  999.0,  999.0,  999.0,  999.0
2007/08/24 17:30,   -0.3,    0.3,    1.7,    1.3,    2.3,    2.4,    2.4,    2.9,    3.6,    3.2,  999.0,  999.0,  999.0,  999.0,  999.0,  999.0,  999.0,  999.0,  999.0,  999.0,  999.0,  999.0,  999.0,  999.0,  999.0,  999.0,  999.0,  999.0,  999.0,  999.0
2007/08/24 17:40,   -0.2,    0.6,    1.7,    1.8,    2.8,    2.6,    3.9,    2.9,    3.4,    3.6,  999.0,    3.4,  999.0,  999.0,  999.0,  999.0,  999.0,  999.0,  999.0,  999.0,  999.0,  999.0,  999.0,  999.0,  999.0,  999.0,  999.0,  999.0,  999.0,  999.0
2007/08/24 17:50,   -0.2,    0.1,    2.2,    3.2,    2.2,    2.6,    2.6,  999.0,    3.5,    3.6,  999.0,    2.6,  999.0,  999.0,  999.0,  999.0,  999.0,  999.0,  999.0,  999.0,  999.0,  999.0,  999.0,  999.0,  999.0,  999.0,  999.0,  999.0,  999.0,  999.0
2007/08/24 18:00,   -0.5,    0.0,    1.7,    2.3,    2.5,    2.9,    2.6,    3.3,    3.7,    3.7,    3.4,    3.9,    1.9,    2.0,    3.1,    4.6,    7.3,    8.7,  999.0,    2.1,    3.4,  999.0,  999.0,  999.0,  999.0,  999.0,  999.0,  999.0,  999.0,  999.0
2007/08/24 18:10,   -0.6,   -0.7,    1.3,    2.7,    2.9,    2.9,    2.5,    2.4,    3.7,    4.0,  999.0,    3.1,    4.1,    3.6,    4.0,    4.1,    1.6,  999.0,    2.8,    2.6,  999.0,  999.0,  999.0,  999.0,  999.0,  999.0,  999.0,  999.0,  999.0,  999.0
2007/08/24 18:20,   -0.6,   -0.5,    0.3,    3.4,    4.9,    3.6,    5.3,    6.4,    2.1,    1.9,    3.2,    2.9,    1.2,   -1.3,   -2.6,   -4.7,   -5.1,   -3.9,   -8.0,   -4.0,   -3.4,   -3.4,   -3.1,   -1.8,    2.2,    3.1,    1.9,    0.9,   -2.2,   -1.7
2007/08/24 18:30,   -0.1,    0.3,    1.4,    2.2,    3.2,    2.3,    3.3,    3.3,    4.1,    6.0,    4.4,    4.8,    4.9,    4.1,    3.1,    1.5,    1.2,   -0.7,    1.5,    1.3,    0.5,    0.6,    1.7,   -0.3,   -0.1,   -1.2,   -1.7,    0.4,   -0.0,    1.5
2007/08/24 18:40,   -1.3,   -0.7,    1.4,    3.7,    3.2,    2.9,    6.4,    8.5,    7.7,    5.5,    7.1,    7.4,    6.7,    6.4,    3.9,    5.3,    0.6,    0.6,    2.2,    5.3,    6.3,    6.6,    3.1,    1.7,    0.9,    1.9,    1.3,    0.9,   -1.0,   -3.0
2007/08/24 18:50,   -1.1,   -0.9,    1.3,    1.7,    0.6,   -0.5,    4.7,    7.7,    8.8,    7.7,    7.3,    8.3,    7.6,    5.2,    5.3,    7.3,    7.9,   10.1,   12.4,   12.5,   12.2,    8.9,    6.1,  999.0,   -0.3,    2.2,   -5.7,  -10.1,   -7.0,    5.3
2007/08/24 19:00,   -1.1,   -0.3,    1.9,    3.8,    5.0,    2.9,    3.0,    4.4,    5.9,    6.1,    6.3,    5.8,    6.0,    5.8,    6.3,    6.4,    5.8,    5.6,  999.0,    3.0,    2.4,    4.9,    5.6,    5.0,    3.4,   -1.7,   -1.7,   -3.9,   -6.4,   -4.9
2007/08/24 19:10,    3.3,   -0.8,    1.0,    2.3,    2.6,    3.0,    2.5,    5.0,    5.0,    6.0,    5.6,    4.4,    1.8,    5.1,    4.1,    5.4,    4.2,    5.6,    6.9,    7.6,    7.2,    4.7,    4.3,    1.0,  999.0,  999.0,  999.0,  999.0,  999.0,  999.0
2007/08/24 19:20,  999.0,   -0.1,    0.1,    1.8,    3.1,  999.0,  999.0,  999.0,  999.0,  999.0,    1.3,  999.0,  999.0,  999.0,  999.0,  999.0,    2.5,    5.6,    4.6,    7.1,    3.3,    1.4,  999.0,  999.0,  999.0,  999.0,  999.0,  999.0,  999.0,  999.0
2007/08/24 19:30,  999.0,   -0.1,    0.9,    3.7,    3.9,    5.5,    0.9,   -1.3,    4.0,  999.0,    0.3,    0.7,  999.0,  999.0,    2.2,  999.0,  999.0,  999.0,  999.0,  999.0,  999.0,  999.0,    1.1,    0.7,  999.0,  999.0,  999.0,  999.0,  999.0,  999.0
2007/08/24 19:40,  999.0,    0.1,    1.2,    3.0,    3.4,  999.0,    1.9,    2.2,    1.8,    2.8,    2.3,    2.1,  999.0,  999.0,  999.0,  999.0,  999.0,  999.0,  999.0,  999.0,  999.0,  999.0,  999.0,    0.1,  999.0,  999.0,  999.0,  999.0,  999.0,  999.0
2007/08/24 19:50,  999.0,    0.5,    1.1,    1.8,    3.2,    5.4,    1.9,    2.1,    3.5,    2.8,  999.0,  999.0,  999.0,  999.0,  999.0,  999.0,  999.0,  999.0,  999.0,  999.0,  999.0,  999.0,  999.0,  999.0,  999.0,  999.0,  999.0,  999.0,  999.0,  999.0
2007/08/24 20:00,  999.0,   -0.2,    1.3,    3.0,    4.4,    4.2,    1.2,   -0.7,    2.6,    2.8,   -0.7,   -3.0,    0.3,  999.0,  999.0,  999.0,  999.0,  999.0,  999.0,  999.0,  999.0,  999.0,    1.5,  999.0,  999.0,  999.0,  999.0,  999.0,  999.0,  999.0
2007/08/24 20:10,  999.0,  999.0,    2.0,    3.0,    4.3,    4.6,    0.7,    3.2,    5.1,    0.7,   -0.1,    2.9,  999.0,  999.0,  999.0,  999.0,  999.0,  999.0,  999.0,  999.0,  999.0,  999.0,  999.0,  999.0,  999.0,  999.0,  999.0,  999.0,  999.0,  999.0
2007/08/24 20:20,  999.0,   -1.3,    1.2,    2.1,    4.1,    4.7,    3.3,    3.1,    3.4,    2.7,    1.0,    5.9,    5.0,  999.0,  999.0,  999.0,  999.0,  999.0,  999.0,  999.0,  999.0,  999.0,  999.0,  999.0,  999.0,  999.0,  999.0,  999.0,  999.0,  999.0
2007/08/24 20:30,  999.0,    1.9,    0.9,    2.0,    4.8,    4.2,    3.9,    2.2,   -0.3,    3.2,    4.1,    2.8,    4.4,  999.0,  999.0,    3.6,  999.0,  999.0,  999.0,  999.0,  999.0,  999.0,  999.0,  999.0,  999.0,  999.0,  999.0,  999.0,  999.0,  999.0
2007/08/24 20:40,   -0.3,   -0.5,    1.0,    1.9,    2.5,    3.4,    4.0,    3.0,  999.0,    2.7,    2.8,  999.0,    3.5,  999.0,  999.0,  999.0,  999.0,  999.0,  999.0,  999.0,  999.0,  999.0,  999.0,  999.0,  999.0,  999.0,  999.0,  999.0,  999.0,  999.0
2007/08/24 20:50,  999.0,  999.0,  999.0,    3.0,    3.3,    4.5,    9.1,   -0.8,  999.0,  999.0,    3.3,  999.0,  999.0,  999.0,    1.8,  999.0,  999.0,  999.0,  999.0,  999.0,  999.0,  999.0,  999.0,  999.0,  999.0,  999.0,  999.0,  999.0,  999.0,  999.0
2007/08/24 21:00,  999.0,   -0.3,    1.2,    2.7,    3.5,    4.9,    3.9,    3.3,  999.0,  999.0,  999.0,  999.0,  999.0,    1.6,    0.7,  999.0,  999.0,  999.0,  999.0,  999.0,  999.0,  999.0,  999.0,  999.0,  999.0,    0.1,  999.0,  999.0,  999.0,  999.0
2007/08/24 21:10,  999.0,   -1.3,  999.0,    2.8,    4.7,    5.0,    4.3,    3.3,  999.0,    1.8,  999.0,  999.0,    1.4,  999.0,  999.0,  999.0,  999.0,    1.0,  999.0,  999.0,  999.0,  999.0,  999.0,  999.0,  999.0,  999.0,  999.0,  999.0,  999.0,  999.0
2007/08/24 21:20,  999.0,   -0.3,    1.6,    4.2,    4.2,    4.7,    3.5,    3.7,    5.1,  999.0,  999.0,  999.0,  999.0,  999.0,  999.0,  999.0,  999.0,  999.0,  999.0,  999.0,  999.0,  999.0,  999.0,  999.0,  999.0,  999.0,  999.0,  999.0,  999.0,  999.0
2007/08/24 21:30,  999.0,   -0.3,  999.0,    3.0,    4.7,    4.9,    2.8,    3.1,    6.3,  999.0,  999.0,  999.0,  999.0,  999.0,  999.0,  999.0,  999.0,  999.0,  999.0,  999.0,  999.0,  999.0,  999.0,  999.0,  999.0,  999.0,  999.0,  999.0,  999.0,  999.0
2007/08/24 21:40,  999.0,   -0.2,    1.7,    2.5,    4.1,    5.4,    3.1,    3.6,  999.0,  999.0,  999.0,    2.8,  999.0,  999.0,  999.0,  999.0,  999.0,  999.0,  999.0,  999.0,  999.0,  999.0,  999.0,  999.0,  999.0,  999.0,  999.0,  999.0,  999.0,  999.0
2007/08/24 21:50,   -0.5,   -0.2,    0.9,    3.2,    4.2,    5.2,    3.2,  999.0,    5.5,    3.6,  999.0,  999.0,  999.0,  999.0,  999.0,  999.0,  999.0,  999.0,  999.0,  999.0,  999.0,  999.0,  999.0,  999.0,  999.0,  999.0,  999.0,  999.0,  999.0,  999.0
2007/08/24 22:00,   -0.2,   -0.3,    1.4,    2.5,    3.9,    4.6,    3.4,    2.2,    5.1,  999.0,  999.0,  999.0,  999.0,  999.0,  999.0,   -0.8,  999.0,  999.0,  999.0,  999.0,  999.0,  999.0,  999.0,  999.0,  999.0,  999.0,  999.0,  999.0,  999.0,  999.0
2007/08/24 22:10,   -0.2,   -0.3,    1.4,    2.4,    3.8,  999.0,  999.0,    2.9,  999.0,    2.6,  999.0,  999.0,   -0.5,  999.0,  999.0,    0.8,  999.0,  999.0,  999.0,  999.0,  999.0,  999.0,  999.0,  999.0,  999.0,  999.0,  999.0,  999.0,  999.0,  999.0
2007/08/24 22:20,   -0.4,   -0.4,  999.0,    2.0,    3.1,  999.0,    5.3,    3.9,  999.0,  999.0,  999.0,  999.0,  999.0,  999.0,  999.0,  999.0,  999.0,  999.0,  999.0,  999.0,  999.0,  999.0,  999.0,  999.0,  999.0,  999.0,  999.0,  999.0,  999.0,  999.0
2007/08/24 22:30,  999.0,   -0.5,    0.6,    1.6,  999.0,  999.0,    4.2,    2.5,    5.9,  999.0,  999.0,  999.0,  999.0,  999.0,  999.0,  999.0,  999.0,  999.0,  999.0,  999.0,  999.0,  999.0,  999.0,  999.0,  999.0,  999.0,  999.0,  999.0,  999.0,  999.0
2007/08/24 22:40,  999.0,   -0.3,  999.0,    1.6,    1.8,    4.4,    3.0,    2.3,  999.0,  999.0,  999.0,  999.0,  999.0,  999.0,  999.0,  999.0,  999.0,  999.0,  999.0,  999.0,  999.0,  999.0,  999.0,  999.0,  999.0,  999.0,  999.0,  999.0,  999.0,  999.0
2007/08/24 22:50,  999.0,   -0.7,  999.0,  999.0,    3.2,    2.7,    2.9,    1.1,  999.0,  999.0,  999.0,  999.0,  999.0,  999.0,  999.0,  999.0,  999.0,  999.0,  999.0,  999.0,  999.0,  999.0,  999.0,  999.0,  999.0,  999.0,  999.0,  999.0,  999.0,  999.0
2007/08/24 23:00,  999.0,    0.3,  999.0,    2.6,    2.8,    4.1,    1.9,    0.8,    3.6,  999.0,  999.0,    2.1,  999.0,  999.0,  999.0,  999.0,  999.0,  999.0,  999.0,  999.0,  999.0,  999.0,  999.0,  999.0,  999.0,  999.0,  999.0,  999.0,  999.0,  999.0
2007/08/24 23:10,  999.0,   -0.0,    1.3,    2.2,    2.2,    5.7,    2.5,    1.5,  999.0,  999.0,  999.0,  999.0,  999.0,  999.0,  999.0,  999.0,  999.0,  999.0,  999.0,  999.0,  999.0,  999.0,  999.0,  999.0,  999.0,  999.0,  999.0,  999.0,  999.0,  999.0
2007/08/24 23:20,  999.0,    0.2,  999.0,    2.1,    2.4,    4.3,    1.9,   -0.3,  999.0,  999.0,  999.0,  999.0,  999.0,  999.0,  999.0,  999.0,  999.0,  999.0,  999.0,  999.0,  999.0,  999.0,  999.0,  999.0,  999.0,  999.0,  999.0,  999.0,  999.0,  999.0
2007/08/24 23:30,   -0.2,   -0.4,    0.0,    2.6,    4.0,    3.7,    0.5,    0.1,  999.0,    1.8,  999.0,  999.0,  999.0,  999.0,  999.0,  999.0,  999.0,  999.0,  999.0,  999.0,  999.0,  999.0,  999.0,  999.0,  999.0,  999.0,  999.0,  999.0,  999.0,  999.0
2007/08/24 23:40,   -0.2,   -0.1,    0.4,    1.9,    3.1,    2.1,    2.4,    1.3,  999.0,  999.0,  999.0,  999.0,  999.0,  999.0,  999.0,  999.0,  999.0,  999.0,  999.0,  999.0,  999.0,  999.0,  999.0,  999.0,  999.0,  999.0,  999.0,  999.0,  999.0,  999.0
2007/08/24 23:50,  999.0,   -0.3,  999.0,    2.7,    2.8,  999.0,    3.2,    1.4,  999.0,    3.5,    1.9,   -1.8,    0.6,  999.0,  999.0,  999.0,  999.0,  999.0,  999.0,  999.0,  999.0,  999.0,  999.0,  999.0,  999.0,  999.0,  999.0,  999.0,  999.0,  999.0
